This is the latest recevied weather packets stored in our database for station/object KB0Y. If no packets are shown the sender has not sent any weather packets the latest 10 day(s).
| Time | Temp. | Humidity | Pressure | Rain* | Wind** | Luminosity | Snow |
|---|---|---|---|---|---|---|---|
| 1778098002 | 31.67° C | 58% | 1019.3 hPa | 0 mm | - | 600 W/m² | - |
| 1778097699 | 31.67° C | 57% | 1019.3 hPa | 0 mm | - | 541 W/m² | - |
| 1778097395 | 31.67° C | 58% | 1019.3 hPa | 0 mm | - | 608 W/m² | - |
| 1778097091 | 31.67° C | 57% | 1019.3 hPa | 0 mm | - | 591 W/m² | - |
| 1778096789 | 31.67° C | 57% | 1018.9 hPa | 0 mm | - | 416 W/m² | - |
| 1778096485 | 31.11° C | 60% | 1018.9 hPa | 0 mm | - | 616 W/m² | - |
| 1778096183 | 31.11° C | 59% | 1019.3 hPa | 0 mm | - | 633 W/m² | - |
| 1778095880 | 31.11° C | 60% | 1019.3 hPa | 0 mm | - | 615 W/m² | - |
| 1778095577 | 31.11° C | 59% | 1019.6 hPa | 0 mm | - | 599 W/m² | - |
| 1778095273 | 31.11° C | 58% | 1019.6 hPa | 0 mm | - | 617 W/m² | - |
| 1778094970 | 31.11° C | 58% | 1020 hPa | 0 mm | - | 609 W/m² | - |
| 1778094665 | 31.11° C | 59% | 1020 hPa | 0 mm | - | 646 W/m² | - |
| 1778094363 | 30.56° C | 58% | 1020 hPa | 0 mm | - | 633 W/m² | - |
| 1778094060 | 30.56° C | 59% | 1020 hPa | 0 mm | - | 593 W/m² | - |
| 1778093757 | 30.56° C | 60% | 1019.6 hPa | 0 mm | - | 515 W/m² | - |
| 1778093453 | 30.56° C | 59% | 1020 hPa | 0 mm | - | 563 W/m² | - |
| 1778093151 | 30.56° C | 59% | 1020 hPa | 0 mm | - | 534 W/m² | - |
| 1778092848 | 30.56° C | 60% | 1020 hPa | 0 mm | - | 518 W/m² | - |
| 1778092544 | 30° C | 59% | 1020 hPa | 0 mm | - | 601 W/m² | - |
| 1778092241 | 30° C | 60% | 1020.3 hPa | 0 mm | - | 597 W/m² | - |
| 1778091938 | 29.44° C | 59% | 1020.3 hPa | 0 mm | - | 597 W/m² | - |
| 1778091635 | 29.44° C | 61% | 1020.3 hPa | 0 mm | - | 575 W/m² | - |
| 1778091333 | 29.44° C | 60% | 1020 hPa | 0 mm | - | 575 W/m² | - |
| 1778091030 | 29.44° C | 61% | 1020.3 hPa | 0 mm | - | 601 W/m² | - |
| 1778090726 | 29.44° C | 61% | 1020.3 hPa | 0 mm | - | 597 W/m² | - |
* Rain latest hour (hover to see other rain measurements)
** Current wind speed in m/s (hover to see current wind gust speed)